TimeEDT,TemperatureF,Dew PointF,Humidity,Sea Level PressureIn,VisibilityMPH,Wind Direction,Wind SpeedMPH,Gust SpeedMPH,PrecipitationIn,Events,Conditions,WindDirDegrees,DateUTC
12:56 AM,62.1,59.0,90,30.13,10.0,Calm,Calm,-,N/A,,Clear,0,2013-08-07 04:56:00
1:56 AM,64.0,59.0,84,30.13,10.0,Calm,Calm,-,N/A,,Overcast,0,2013-08-07 05:56:00
2:56 AM,64.0,60.1,87,30.13,10.0,Calm,Calm,-,N/A,,Overcast,0,2013-08-07 06:56:00
3:56 AM,62.1,57.9,86,30.12,10.0,Calm,Calm,-,N/A,,Scattered Clouds,0,2013-08-07 07:56:00
4:56 AM,62.1,59.0,90,30.13,10.0,Calm,Calm,-,N/A,,Clear,0,2013-08-07 08:56:00
5:56 AM,63.0,59.0,87,30.14,10.0,Calm,Calm,-,N/A,,Mostly Cloudy,0,2013-08-07 09:56:00
6:56 AM,64.9,60.1,84,30.15,10.0,East,3.5,-,N/A,,Mostly Cloudy,90,2013-08-07 10:56:00
7:56 AM,66.0,60.1,81,30.15,10.0,ESE,3.5,-,N/A,,Mostly Cloudy,110,2013-08-07 11:56:00
8:56 AM,70.0,60.1,71,30.14,10.0,SE,11.5,-,N/A,,Overcast,130,2013-08-07 12:56:00
9:56 AM,71.1,61.0,70,30.14,10.0,SE,10.4,-,N/A,,Mostly Cloudy,140,2013-08-07 13:56:00
10:56 AM,71.1,60.1,68,30.15,10.0,SE,9.2,-,N/A,,Mostly Cloudy,140,2013-08-07 14:56:00
11:56 AM,73.0,61.0,66,30.14,10.0,SE,8.1,-,N/A,,Overcast,140,2013-08-07 15:56:00
12:56 PM,73.0,59.0,61,30.14,10.0,ESE,10.4,-,N/A,,Mostly Cloudy,120,2013-08-07 16:56:00
1:56 PM,73.0,61.0,66,30.13,10.0,ESE,6.9,-,N/A,,Overcast,110,2013-08-07 17:56:00
2:56 PM,73.9,62.1,66,30.12,10.0,SE,11.5,19.6,N/A,,Mostly Cloudy,130,2013-08-07 18:56:00
3:56 PM,73.9,63.0,68,30.11,10.0,SSE,6.9,17.3,N/A,,Mostly Cloudy,160,2013-08-07 19:56:00
4:56 PM,75.0,62.1,64,30.09,9.0,SSE,9.2,18.4,N/A,,Mostly Cloudy,160,2013-08-07 20:56:00
5:56 PM,73.0,62.1,68,30.09,10.0,SSE,8.1,-,N/A,,Mostly Cloudy,160,2013-08-07 21:56:00
6:56 PM,72.0,63.0,73,30.08,10.0,SSE,6.9,-,N/A,,Overcast,160,2013-08-07 22:56:00
7:56 PM,72.0,63.0,73,30.09,10.0,SSE,9.2,19.6,N/A,,Overcast,160,2013-08-07 23:56:00
8:56 PM,71.1,64.9,81,30.07,10.0,SSE,9.2,-,N/A,,Overcast,160,2013-08-08 00:56:00
9:56 PM,71.1,66.0,84,30.09,10.0,SSE,6.9,-,N/A,,Overcast,160,2013-08-08 01:56:00
10:56 PM,70.0,66.0,87,30.09,10.0,SSE,5.8,-,N/A,,Overcast,160,2013-08-08 02:56:00
11:33 PM,69.8,66.2,88,30.09,10.0,SSE,6.9,-,N/A,,Mostly Cloudy,160,2013-08-08 03:33:00
11:56 PM,70.0,66.0,87,30.07,10.0,SSE,5.8,-,N/A,,Mostly Cloudy,150,2013-08-08 03:56:00